Los Angeles Downtown, CA

10:51 AM PST on February 18, 2018 (GMT -0800)
Los Angeles Downtown

Weather History for KCQT - November, 2012

Change the Weather History Date:

Wednesday, November 21, 2012

  Actual Average Record
Temperature  
Mean Temperature 60 °F 61 °F  
Max Temperature 69 °F 71 °F 93 °F (1924)
Min Temperature 51 °F 51 °F 39 °F (1905)
Degree Days  
Heating Degree Days 5 5  
Month to date heating degree days 54 63  
Since 1 July heating degree days 56 83  
Cooling Degree Days 0 1  
Month to date cooling degree days 31 31  
Year to date cooling degree days 1312 1238  
Growing Degree Days 10 (Base 50)    
Moisture  
Dew Point 52 °F    
Average Humidity 77    
Maximum Humidity 96    
Minimum Humidity 58    
Precipitation  
Precipitation 0.00 in 0.04 in 2.97 in (1967)
Month to date precipitation 0.33 0.65  
Year to date precipitation 5.29 12.21  
Since 1 July precipitation 0.36  
Sea Level Pressure  
Sea Level Pressure 30.07 in    
Wind  
Wind Speed 0 mph (SE)    
Max Wind Speed 6 mph    
Max Gust Speed 9 mph    
Visibility 7 miles    
Events      
T = Trace of Precipitation, MM = Missing Value Source: NWS Daily Summary

Daily Weather History Graph

Daily Weather History Graph

Search for Another Location

Airport or City:

Trip Planner

Search our weather history database for the weather conditions in past years. The results will help you decide how hot, cold, wet, or windy it might be!

Date:

Astronomy

Nov. 21, 2012 Rise Set
Actual Time 6:31 AM PST 4:45 PM PST
Civil Twilight 6:04 AM PST 5:12 PM PST
Nautical Twilight 5:34 AM PST 5:43 PM PST
Astronomical Twilight 5:04 AM PST 6:13 PM PST
Moon 12:50 PM PST (11/21) 12:12 AM PST (11/21)
Length of Visible Light 11h 08m
Length of Day
10h 14m
Waxing Gibbous, 63% of the Moon is Illuminated
Nov 21
Waxing Gibbous
Nov 28
Full
Dec 6
Last Quarter
Dec 13
New
Dec 19
First Quarter

Hourly Weather History & Observations

Time (PST) Temp. Dew Point Humidity Pressure Visibility Wind Dir Wind Speed Gust Speed Precip Events Conditions
12:06 AM 57.2 °F 53.6 °F 88% 30.07 in 10.0 mi Calm Calm - N/A   Mostly Cloudy
12:39 AM 57.2 °F 53.6 °F 88% 30.06 in 9.0 mi Calm Calm - N/A   Scattered Clouds
12:47 AM 57.0 °F 54.0 °F 89% 30.06 in 9.0 mi SE 4.6 mph - N/A   Partly Cloudy
1:47 AM 55.0 °F 51.1 °F 86% 30.06 in 10.0 mi Calm Calm - N/A   Clear
2:47 AM 54.0 °F 51.1 °F 90% 30.06 in 9.0 mi Calm Calm - N/A   Clear
3:47 AM 54.0 °F 50.0 °F 86% 30.05 in 10.0 mi Calm Calm - N/A   Clear
4:47 AM 53.1 °F 50.0 °F 89% 30.06 in 10.0 mi Calm Calm - N/A   Clear
5:47 AM 52.0 °F 48.0 °F 86% 30.07 in 10.0 mi Calm Calm - N/A   Clear
6:47 AM 52.0 °F 50.0 °F 93% 30.09 in 6.0 mi Calm Calm - N/A   Clear
7:15 AM 51.8 °F 48.2 °F 88% 30.10 in 5.0 mi Calm Calm - N/A   Partly Cloudy
7:24 AM 51.8 °F 50.0 °F 94% 30.10 in 2.0 mi Calm Calm - N/A   Mostly Cloudy
7:26 AM 51.8 °F 50.0 °F 94% 30.10 in 1.5 mi Calm Calm - N/A   Mostly Cloudy
7:39 AM 53.6 °F 51.8 °F 94% 30.10 in 3.0 mi Calm Calm - N/A   Scattered Clouds
7:47 AM 54.0 °F 52.0 °F 93% 30.10 in 3.0 mi Calm Calm - N/A   Scattered Clouds
7:57 AM 53.6 °F 51.8 °F 94% 30.11 in 2.5 mi Calm Calm - N/A   Partly Cloudy
8:03 AM 53.6 °F 51.8 °F 94% 30.11 in 3.0 mi Calm Calm - N/A   Partly Cloudy
8:47 AM 55.9 °F 52.0 °F 87% 30.12 in 2.5 mi Calm Calm - N/A   Partly Cloudy
8:55 AM 55.4 °F 51.8 °F 88% 30.12 in 3.0 mi Variable 3.5 mph - N/A   Partly Cloudy
9:47 AM 57.9 °F 53.1 °F 84% 30.12 in 4.0 mi Calm Calm - N/A   Haze
10:47 AM 62.1 °F 52.0 °F 70% 30.09 in 5.0 mi Calm Calm - N/A   Haze
11:47 AM 64.9 °F 51.1 °F 61% 30.07 in 7.0 mi Calm Calm - N/A   Clear
12:47 PM 66.0 °F 53.1 °F 63% 30.04 in 5.0 mi Calm Calm - N/A   Haze
1:47 PM 68.0 °F 53.1 °F 59% 30.02 in 7.0 mi Calm Calm - N/A   Clear
2:47 PM 68.0 °F 53.1 °F 59% 30.01 in 9.0 mi Calm Calm - N/A   Clear
3:47 PM 66.9 °F 52.0 °F 59% 30.01 in 10.0 mi Calm Calm - N/A   Clear
4:47 PM 64.0 °F 53.1 °F 67% 30.01 in 10.0 mi Calm Calm - N/A   Clear
5:47 PM 61.0 °F 53.1 °F 75% 30.03 in 10.0 mi Calm Calm - N/A   Clear
6:47 PM 59.0 °F 54.0 °F 83% 30.04 in 9.0 mi Calm Calm - N/A   Clear
7:47 PM 57.9 °F 53.1 °F 84% 30.04 in 10.0 mi Calm Calm - N/A   Clear
8:47 PM 57.0 °F 53.1 °F 87% 30.05 in 9.0 mi Calm Calm - N/A   Clear
9:47 PM 57.9 °F 54.0 °F 87% 30.05 in 8.0 mi Calm Calm - N/A   Clear
10:47 PM 57.9 °F 55.0 °F 90% 30.05 in 6.0 mi Calm Calm - N/A   Clear
11:47 PM 57.9 °F 54.0 °F 87% 30.05 in 5.0 mi Calm Calm - N/A   Clear